This demonstration page uses our WeatherBlox Daily Observations layout. Learn more.

Left ArrowRight Arrow

41.86663, -103.66717

Hourly Observations for September 25, 2020

Temp ( °F °C ) Dew Point ( °F °C ) Humidity (%) Winds ( mph kmh ) Pressure ( in mb ) Visibility ( mi km ) Precip ( " mm )
12:53 am 00:53 Clear 57 13.9 39 3.9 51 51 ENE 3 6 29.69 1005 10 16.0934 0 0
1:53 am 01:53 Clear 57 13.9 38 3.3 49 49 NNE 5 7 29.69 1005 10 16.0934 0 0
2:53 am 02:53 Clear 53 11.7 39 3.9 59 59 NW 9 15 29.75 1008 10 16.0934 0 0
3:53 am 03:53 Clear 54 12.2 39 3.9 57 57 W 9 15 29.78 1008 10 16.0934 0 0
4:53 am 04:53 Clear 51 10.6 39 3.9 64 64 WNW 7 11 29.8 1009 10 16.0934 0 0
5:53 am 05:53 Clear 50 10 39 3.9 66 66 NW 8 13 29.83 1010 10 16.0934 0 0
6:53 am 06:53 Sunny 47 8.3 39 3.9 74 74 NW 6 9 29.88 1012 10 16.0934 0 0
7:53 am 07:53 Sunny 50 10 39 3.9 66 66 NW 10 17 29.91 1013 10 16.0934 0 0
8:53 am 08:53 Sunny 56 13.3 39 3.9 53 53 WNW 7 11 29.93 1014 10 16.0934 0 0
9:53 am 09:53 Sunny 62 16.7 38 3.3 41 41 WNW 5 7 29.92 1013 10 16.0934 0 0
10:53 am 10:53 Sunny 69 20.6 35 1.7 29 29 undefined N/A 29.89 1012 10 16.0934 0 0
11:53 am 11:53 Sunny 70 21.1 36 2.2 29 29 S 6 9 29.87 1012 10 16.0934 0 0
12:53 pm 12:53 Sunny 72 22.2 37 2.8 28 28 VRB 3 6 29.83 1010 10 16.0934 0 0
1:53 pm 13:53 Sunny 74 23.3 35 1.7 24 24 SSE 7 11 29.79 1009 10 16.0934 0 0
2:53 pm 14:53 Sunny 76 24.4 37 2.8 24 24 ESE 9 15 29.76 1008 10 16.0934 0 0
3:53 pm 15:53 Sunny 79 26.1 39 3.9 24 24 ESE 12 19 29.73 1007 10 16.0934 0 0
4:53 pm 16:53 Sunny 80 26.7 39 3.9 23 23 ESE 15 24 29.72 1007 10 16.0934 0 0
5:53 pm 17:53 Sunny 74 23.3 41 5 31 31 ESE 9 15 29.73 1007 10 16.0934 0 0
6:53 pm 18:53 Clear 68 20 41 5 38 38 ESE 8 13 29.74 1007 10 16.0934 0 0
7:53 pm 19:53 Clear 63 17.2 41 5 45 45 ESE 8 13 29.75 1007 10 16.0934 0 0
8:53 pm 20:53 Clear 64 17.8 41 5 43 43 ESE 8 13 29.74 1007 10 16.0934 0 0
9:53 pm 21:53 Clear 65 18.3 41 5 42 42 E 6 9 29.72 1007 10 16.0934 0 0
10:53 pm 22:53 Clear 65 18.3 41 5 42 42 ESE 8 13 29.7 1006 10 16.0934 0 0
11:53 pm 23:53 Clear 62 16.7 41 5 46 46 E 6 9 29.7 1006 10 16.0934 0 0

Powered by AerisWeather